NIMBUS 2 DEB, 28617

Orbit data source: Space-Track

NIMBUS 2 DEB, 28617 is space debris in SSO originally from a launch on Sun, 15 May 1966 UTC launched from the Air Force Western Test Range (AFWTR). Debris objects in space refer to the collection of defunct objects orbiting the Earth. Examples of debris include non-operational satellites, rocket bodies, and fragments generated from explosions, collisions, or faulty payload assembly.

Loading next visibility...
Identifier
28617, 1966-040AG
Orbit
SSO
Country
Flag of USUS
Related business
Manufacturer
Unknown
Mission
Spacecraft
Bus & Motor
Unknown
Mass
Unknown
Launch date (UTC)
1966-05-15 (60 years ago)
Launch vehicle
Unknown
Launch site
Air Force Western Test Range (AFWTR)
Object type
Payload
Rocket body
Debris
Shape & HBR
Unknown shape, 0.1 m
Radar Cross Section
Small (<0.1 m²)

Expand to show TLE details & history
Last TLE update: 3 days ago

TLE from 3 days ago
0 NIMBUS 2 DEB
1 28617U 66040AG  26125.43390962  .00003798  00000-0  36001-2 0  9991
2 28617 100.4753   0.1689 0045135 155.9493  22.4194 13.81258415189147
Epoch: 2026-05-05T10:24Z
TLE epoch observation values (Epoch: 2026-05-05T10:24:49.791Z)
Latitude
1.30375°
Longitude
160.89246°
Altitude
931.469 km
Speed
7.402 km/s
True Right ascension
12h 01m 38s
True Declination
1° 17' 46"
Sunlit
Object was in full shadow at epoch
Visualization orbit readout
Latitude
Unknown
Longitude
Unknown
Altitude
Unknown
Speed
Unknown
Apparent Right ascension
Unknown
Apparent Declination
Unknown
Sunlit
N/A
Visualization observer readout
Local Sidereal Time
19:11:03
Azimuth
Unknown
Elevation
Unknown
Doppler factor
Unknown
Orbital elements
Apogee altitude
989.834 km
Perigee altitude
923.622 km
Semi-major axis
7,334.865 km
Eccentricity
0.00451
Inclination
100.4753°
RAAN
0.1689°
Arg. of periapsis
155.9493°
True anomaly
22.61769°
Mean anomaly
22.4194°
Eccentric anomaly
22.51844°
Mean motion
3.45505 °/min
Orbital period
104.2 mins
BSTAR
0.0036001
Loading maneuver chart data...
Computing Atmospheric mass density...
Loading historical data...
Loading historical data...
Loading historical data...
Loading historical data...
Loading historical data...
Loading historical data...
Loading historical data...

Documentation

Showing up to 5 results
|